Orbital Elements at Epoch 2459000.5 (2020-May-31.0) TDB
Reference: JPL 14 (heliocentric ecliptic J2000)
Element | Value | Uncertainty (1-sigma) | Units |
e | .1196467277466275 | 6.0299e-08 | |
a | 3.072996504015032 | 3.7856e-08 | au |
q | 2.705322527932807 | 1.7964e-07 | au |
i | .6508459514409127 | 6.6943e-06 | deg |
node | 60.61004238000206 | 0.00061788 | deg |
peri | 153.5183047983239 | 0.00061867 | deg |
M | 272.4289947752599 | 3.0806e-05 | deg |
tp | 2459479.129387390666 (2021-Sep-21.62938739) | 0.00017136 | TDB |
period | 1967.6213493089 5.39 | 3.6358e-05 9.954e-08 | d yr |
n | .1829620318596589 | 3.3808e-09 | deg/d |
Q | 3.440670480097257 | 4.2385e-08 | au |
|
| | Orbit Determination Parameters
Additional Information
|